Other Public Products
Issued by NWS Charleston, SC

Current Version | Previous Version | Text Only | Print | Product List | Glossary Off
Versions: 1 2 3 4 5 6 7 8 9 10 11 12 13 14 15 16 17 18 19 20 21 22 23 24 25 26 27 28 29 30 31 32 33 34 35 36 37 38 39 40 41 42 43 44 45 46 47 48 49 50

908
FPUS82 KCHS 192227
OPUCHS

TEST...KCHS/KSAV Gateway Observations...TEST
National Weather Service Charleston SC
600 PM EDT WED JUL 19 2017

NOTE: "fair" indicates few or no clouds below 12,000 feet with no
significant weather and/or obstructions to visibility.

SCZ050-WAZ558-NCZ071-TXZ119-213-PAZ071-DCZ001-FLZ074-172-MI076-
NYZ176-178-MAZ016-IL014-TNZ027-NJZ106-GAZ044-MD014-192300-

...Gateway Observations for Charleston International...

CITY           SKY/WX    TMP DP  RH WIND       PRES   REMARKS
Chas Airport   TSTM      70  68  93 E10       30.11S FOG
Seattle        MOSUNNY   74  48  39 VRB5      30.06F
Charlotte      TSTM      78  62  57 S16G22    30.08R
Dallas DFW     MOSUNNY   97  68  38 S7        30.04F HX 102
Dallas Love    MOSUNNY   97  69  40 SE13      30.05F HX 103
Philladelphia  MOSUNNY   93  68  43 SW10      29.97F HX  97
Wash National  PTSUNNY   95  70  44 VRB5      29.99F HX 101
Baltimore      MOSUNNY   89  73  59 SE7       29.99F HX  97
Miami          LGT RAIN  88  75  65 S5        30.05F HX  97
Detroit        PTSUNNY   87  71  58 VRB5      30.04R HX  93
Newark         MOSUNNY   94  64  37 W15       29.95S HX  95
Laguardia      MOSUNNY   92  67  43 NW7       29.94F HX  95
J F K          MOSUNNY   83  74  74 S16       29.97S
Boston Logan   MOSUNNY   90  65  43 W12G18    29.90S HX  92
Ft. Lauderdale PTSUNNY   86  76  71 SE8       30.05S THUNDER HX  96
Chicago O`Hare MOSUNNY   84  69  60 NE13      30.06F
Chicago Midway PTSUNNY   82  69  64 E12       30.06F
Houston Bush   PTSUNNY   88  74  63 S6        30.06F HX  96
Houston Hobby  PTSUNNY   93  76  57 VRB5      30.05F HX 105
Nashville      TSTM      82  73  74 E16G25    30.10S
Atlanta        MOSUNNY   91  66  43 NW9       30.08F HX  93

$$

GAZ044-118-TXZ119-213-NCZ071-DCZ001-MDZ014-506-PAZ021-071-NJZ106-
NYZ176-178-MAZ106-OHZ011-021-055-MIZ076-KYZ091-ILZ014-INZ047-
MNZ060-ONZ431-192300-

...Gateway Observations for Savannah International...

CITY           SKY/WX    TMP DP  RH WIND       PRES   REMARKS
Savannah Arpt  CLOUDY    88  74  63 S10       30.04F HX  96
Atlanta        MOSUNNY   91  66  43 NW9       30.08F HX  93
Charlotte      TSTM      78  62  57 S16G22    30.08R
Dallas DFW     MOSUNNY   97  68  38 S7        30.04F HX 102
Houston Bush   PTSUNNY   88  74  63 S6        30.06F HX  96
Wash National  PTSUNNY   95  70  44 VRB5      29.99F HX 101
Wash Dulles    MOSUNNY   91  69  48 SW5       30.00F HX  96
Baltimore      MOSUNNY   89  73  59 SE7       29.99F HX  97
Philadelphia   MOSUNNY   93  68  43 SW10      29.97F HX  97
Newark         MOSUNNY   94  64  37 W15       29.95S HX  95
Laguardia      MOSUNNY   92  67  43 NW7       29.94F HX  95
J F K          MOSUNNY   83  74  74 S16       29.97S
Boston         MOSUNNY   90  65  43 W12G18    29.90S HX  92
Pittsburg      MOSUNNY   88  68  51 W14       30.06S HX  91
Akron          MOSUNNY   89  67  47 W13       30.07S HX  92
Cleveland      MOSUNNY   90  65  43 W9        30.06F HX  92
Cincinnati     MOSUNNY   88  69  53 W9        30.10R HX  92
Columbus       SUNNY     87  67  52 W6        30.06S HX  90
Detroit        PTSUNNY   87  71  58 VRB5      30.04R HX  93
Chicago O`Hare MOSUNNY   84  69  60 NE13      30.06F
Minneapolis    CLOUDY    68  64  87 SE13      29.90F
Indianapolis   MOSUNNY   87  69  54 W8        30.09F HX  91
Toronto Canada PTSUNNY   86  66  51 W17       29.96S

$$




USA.gov is the U.S. government's official web portal to all federal, state and local government web resources and services.